DW7898 Mollet del Valles (Barcelona) ES current weather conditions

sailwx.info

Wind from 051 at 0 knots gusting 2

Air temperature 21.7° C
Dewpoint 13.3° C

Last reported at 2019-Sep-16 22:03 UTC.
Time now 2019-Sep-16 22:21 UTC

Location: N 41°32' E 002°13'.
View on Google Maps.

See reports from other nearby stations

  
Tides and Currents Weather Stations Pressure Air Temp Water Temp Dewpoint Dewpoint Depression Visibility Wind Speed Wind Dir Waves Ship Positions
date/time (UTC)wind fromknots sea level pressurealtimeterstation pressurevisibilityair tempwater tempwave heightnotes
2019-Sep-16 22:03 051 0 gusting 2 21.7
2019-Sep-16 21:53 050 1 gusting 2 21.7
2019-Sep-16 21:43 163 0 gusting 1 21.7
2019-Sep-16 21:33 163 21.7
2019-Sep-16 21:23 163 22.2
2019-Sep-16 21:13 163 22.2
2019-Sep-16 21:03 163 22.8
2019-Sep-16 20:53 163 22.8
2019-Sep-16 20:43 163 22.8
2019-Sep-16 20:33 163 22.8
2019-Sep-16 20:23 163 23.3
2019-Sep-16 20:13 167 23.3
2019-Sep-16 20:03 167 23.9
2019-Sep-16 19:53 167 23.9
2019-Sep-16 19:43 167 1 gusting 2 23.9
2019-Sep-16 19:33 167 23.9
2019-Sep-16 19:23 167 24.4
2019-Sep-16 19:13 167 24.4
2019-Sep-16 19:03 167 24.4
2019-Sep-16 18:53 167 0 gusting 3 25.0
2019-Sep-16 18:43 265 0 gusting 1 25.0
2019-Sep-16 18:33 265 25.6
2019-Sep-16 18:23 265 0 gusting 1 25.6
2019-Sep-16 18:13 264 0 gusting 2 25.6
2019-Sep-16 18:03 265 0 gusting 2 25.6
2019-Sep-16 17:53 264 1 gusting 2 25.6
2019-Sep-16 17:43 264 1 gusting 3 26.1
2019-Sep-16 17:33 241 0 gusting 2 26.1
2019-Sep-16 17:23 094 26.1
2019-Sep-16 17:13 133 1 gusting 6 26.1
2019-Sep-16 17:03 132 1 gusting 3 26.1
2019-Sep-16 16:53 220 2 gusting 6 26.1
2019-Sep-16 16:43 117 4 gusting 7 26.1
2019-Sep-16 16:33 174 3 gusting 5 26.7
2019-Sep-16 16:23 249 1 gusting 5 27.2
2019-Sep-16 16:13 248 1 gusting 4 27.2
2019-Sep-16 16:03 230 2 gusting 6 27.8
2019-Sep-16 15:53 220 0 gusting 6 27.8
2019-Sep-16 15:44 241 2 gusting 5 28.3
2019-Sep-16 15:33 231 2 gusting 5 28.3
2019-Sep-16 15:23 187 1 gusting 3 28.3
2019-Sep-16 15:13 128 1 gusting 6 27.8
2019-Sep-16 15:03 158 1 gusting 6 27.2
2019-Sep-16 14:54 156 3 gusting 5 27.2
2019-Sep-16 14:43 148 2 gusting 6 27.2
2019-Sep-16 14:33 169 3 gusting 6 27.2
2019-Sep-16 14:23 154 3 gusting 7 27.8
2019-Sep-16 14:13 133 1 gusting 5 27.8
2019-Sep-16 14:03 170 3 gusting 6 28.3
2019-Sep-16 13:53 168 0 gusting 5 27.8
2019-Sep-16 13:43 196 1 gusting 7 27.2
2019-Sep-16 13:33 145 3 gusting 6 27.2
2019-Sep-16 13:23 347 3 gusting 8 27.2
2019-Sep-16 13:13 136 1 gusting 6 27.2
2019-Sep-16 13:03 166 2 gusting 8 26.7
2019-Sep-16 12:53 199 4 gusting 10 26.1
2019-Sep-16 12:43 175 3 gusting 9 26.1
2019-Sep-16 12:33 152 3 gusting 10 26.7
2019-Sep-16 12:23 267 3 gusting 7 27.2
2019-Sep-16 12:13 191 4 gusting 6 27.2
2019-Sep-16 12:03 155 3 gusting 8 27.2
2019-Sep-16 11:53 047 1 gusting 5 27.2
2019-Sep-16 11:43 155 2 gusting 6 27.2
2019-Sep-16 11:33 132 3 gusting 8 27.2
2019-Sep-16 11:23 168 3 gusting 7 26.7
2019-Sep-16 11:13 166 4 gusting 6 27.2
2019-Sep-16 11:03 100 1 gusting 6 27.2
2019-Sep-16 10:53 195 1 gusting 6 27.2
2019-Sep-16 10:43 123 2 gusting 5 27.2
2019-Sep-16 10:33 181 0 gusting 4 26.7
2019-Sep-16 10:23 239 4 gusting 6 26.7
2019-Sep-16 10:13 292 2 gusting 4 26.7
2019-Sep-16 10:03 291 1 gusting 4 26.1
2019-Sep-16 09:54 283 26.1
2019-Sep-16 09:43 298 1 gusting 3 25.6
2019-Sep-16 09:33 294 1 gusting 4 25.0
2019-Sep-16 09:23 273 1 gusting 3 24.4
2019-Sep-16 09:13 272 1 gusting 3 23.9
2019-Sep-16 09:03 236 0 gusting 3 23.9
2019-Sep-16 08:53 238 1 gusting 3 23.3
2019-Sep-16 08:43 258 0 gusting 2 22.8
2019-Sep-16 08:33 262 0 gusting 3 22.8
2019-Sep-16 08:23 307 0 gusting 2 22.2
2019-Sep-16 08:13 307 0 gusting 1 21.7
2019-Sep-16 07:53 306 1 gusting 1 20.6
2019-Sep-16 07:43 307 1 gusting 1 20.6
2019-Sep-16 07:34 314 1 gusting 1 20.0
2019-Sep-16 07:13 011 0 gusting 1 19.4
2019-Sep-16 07:03 011 19.4
2019-Sep-16 06:53 023 0 gusting 1 18.9
2019-Sep-16 06:43 026 18.9
2019-Sep-16 06:33 025 18.3
2019-Sep-16 06:23 025 18.3
2019-Sep-16 06:13 025 17.8
2019-Sep-16 06:03 025 17.8
2019-Sep-16 05:53 025 0 gusting 1 17.8
2019-Sep-16 05:43 025 18.3
2019-Sep-16 05:33 025 18.3
2019-Sep-16 05:23 025 18.3
2019-Sep-16 05:13 025 0 gusting 1 18.3
2019-Sep-16 05:03 047 0 gusting 1 18.3
2019-Sep-16 04:53 051 0 gusting 1 18.3
2019-Sep-16 04:43 051 0 gusting 2 18.3
2019-Sep-16 04:33 052 1 gusting 3 18.3
2019-Sep-16 04:23 029 0 gusting 2 18.3
2019-Sep-16 04:13 024 1 gusting 2 18.3
2019-Sep-16 04:03 008 1 gusting 2 18.3
2019-Sep-16 03:53 052 0 gusting 1 18.3
2019-Sep-16 03:43 052 1 gusting 3 18.3
2019-Sep-16 03:33 042 1 gusting 2 18.3
2019-Sep-16 03:23 263 18.3
2019-Sep-16 03:13 262 18.3
2019-Sep-16 03:03 025 0 gusting 2 18.3
2019-Sep-16 02:53 032 1 gusting 4 18.3
2019-Sep-16 02:43 041 2 gusting 3 18.3
2019-Sep-16 02:33 038 1 gusting 4 18.3
2019-Sep-16 02:23 048 3 gusting 4 18.3
2019-Sep-16 02:13 010 1 gusting 4 18.3
2019-Sep-16 02:03 021 0 gusting 4 18.3
2019-Sep-16 01:53 011 1 gusting 3 18.9
2019-Sep-16 01:43 075 0 gusting 5 18.9
2019-Sep-16 01:33 039 3 gusting 5 18.9
2019-Sep-16 01:23 027 3 gusting 6 18.9
2019-Sep-16 01:13 035 4 gusting 6 18.9
2019-Sep-16 01:03 044 2 gusting 3 18.9
2019-Sep-16 00:53 050 2 gusting 3 19.4
2019-Sep-16 00:43 052 0 gusting 2 19.4
2019-Sep-16 00:33 044 1 gusting 3 19.4
2019-Sep-16 00:23 022 0 gusting 2 19.4
2019-Sep-16 00:13 040 0 gusting 3 20.0
2019-Sep-16 00:03 038 1 gusting 4 20.0
2019-Sep-15 23:53 041 1 gusting 5 20.0
2019-Sep-15 23:43 052 2 gusting 4 20.0
2019-Sep-15 23:33 051 0 gusting 3 20.0
2019-Sep-15 23:23 081 0 gusting 2 20.0
2019-Sep-15 23:13 153 0 gusting 2 20.0
2019-Sep-15 23:03 165 20.6
2019-Sep-15 22:53 165 20.6
2019-Sep-15 22:43 165 20.6
2019-Sep-15 22:33 165 0 gusting 2 21.1
2019-Sep-15 22:23 092 21.1
2019-Sep-15 22:13 071 21.7
2019-Sep-15 22:03 071 21.7
2019-Sep-15 21:53 071 21.7
2019-Sep-15 21:43 076 0 gusting 4 22.2
2019-Sep-15 21:33 082 0 gusting 3 22.2
2019-Sep-15 21:23 048 1 gusting 2 22.2
2019-Sep-15 21:13 032 1 gusting 3 22.8
2019-Sep-15 21:03 041 22.8
2019-Sep-15 20:53 041 1 gusting 2 22.8
2019-Sep-15 20:43 075 0 gusting 2 23.3
2019-Sep-15 20:33 088 1 gusting 1 23.3
2019-Sep-15 20:23 089 23.3
2019-Sep-15 20:13 089 0 gusting 2 23.9
2019-Sep-15 20:03 078 0 gusting 3 23.9
2019-Sep-15 19:53 054 2 gusting 4 23.9
2019-Sep-15 19:43 058 2 gusting 5 23.9
2019-Sep-15 19:33 040 2 gusting 5 23.9
2019-Sep-15 19:23 357 3 gusting 5 24.4
2019-Sep-15 19:13 007 24.4
2019-Sep-15 19:03 007 0 gusting 2 24.4
2019-Sep-15 18:53 078 2 gusting 4 24.4
2019-Sep-15 18:43 040 1 gusting 7 24.4
2019-Sep-15 18:33 105 4 gusting 8 25.0
2019-Sep-15 18:23 069 3 gusting 5 25.0
2019-Sep-15 18:13 112 3 gusting 8 25.0
2019-Sep-15 18:03 142 2 gusting 9 25.6
2019-Sep-15 17:54 121 4 gusting 9 25.6
2019-Sep-15 17:43 107 0 gusting 3 25.6
2019-Sep-15 17:33 127 1 gusting 6 25.6
2019-Sep-15 17:23 083 3 gusting 8 26.1
2019-Sep-15 17:13 140 1 gusting 7 26.1
2019-Sep-15 17:03 124 2 gusting 6 26.1
2019-Sep-15 16:53 099 2 gusting 7 26.7
2019-Sep-15 16:43 092 1 gusting 9 26.7
2019-Sep-15 16:33 124 6 gusting 10 26.7
2019-Sep-15 16:23 076 3 gusting 6 27.2
2019-Sep-15 16:13 099 3 gusting 9 27.2
2019-Sep-15 16:03 141 2 gusting 13 27.2
2019-Sep-15 15:53 127 3 gusting 13 27.8
2019-Sep-15 15:43 160 2 gusting 9 27.8
2019-Sep-15 15:33 118 5 gusting 13 27.8
2019-Sep-15 15:23 119 6 gusting 12 28.3
2019-Sep-15 15:13 111 6 gusting 12 28.3
2019-Sep-15 15:03 090 4 gusting 12 28.3
2019-Sep-15 14:53 326 2 gusting 11 29.4
2019-Sep-15 14:43 095 2 gusting 9 29.4
2019-Sep-15 14:33 066 2 gusting 9 29.4
2019-Sep-15 14:23 060 6 gusting 13 29.4
2019-Sep-15 14:13 070 4 gusting 13 28.9
2019-Sep-15 14:03 091 5 gusting 13 28.9
2019-Sep-15 13:53 093 5 gusting 13 28.9
2019-Sep-15 13:43 063 6 gusting 12 28.9
2019-Sep-15 13:33 102 3 gusting 11 28.9
2019-Sep-15 13:23 117 1 gusting 11 28.9
2019-Sep-15 13:14 102 6 gusting 13 28.9
2019-Sep-15 13:03 119 5 gusting 15 29.4
2019-Sep-15 12:53 056 3 gusting 12 29.4
2019-Sep-15 12:43 096 2 gusting 11 29.4
2019-Sep-15 12:33 076 5 gusting 11 29.4
2019-Sep-15 12:23 047 3 gusting 11 29.4
2019-Sep-15 12:13 091 4 gusting 10 29.4
2019-Sep-15 12:03 071 5 gusting 7 29.4
2019-Sep-15 11:53 090 3 gusting 12 29.4
2019-Sep-15 11:43 080 5 gusting 11 29.4
2019-Sep-15 11:33 131 4 gusting 6 29.4
2019-Sep-15 11:23 121 3 gusting 10 28.9
2019-Sep-15 11:13 130 4 gusting 9 28.9
2019-Sep-15 11:03 048 6 gusting 9 28.3
2019-Sep-15 10:53 027 4 gusting 9 27.8
2019-Sep-15 10:43 069 5 gusting 7 27.8
2019-Sep-15 10:33 061 3 gusting 11 27.8
2019-Sep-15 10:23 077 3 gusting 8 27.8
2019-Sep-15 10:13 106 4 gusting 8 27.2
2019-Sep-15 10:03 032 4 gusting 12 27.2
2019-Sep-15 09:53 087 4 gusting 12 26.7
2019-Sep-15 09:43 069 4 gusting 8 26.7
2019-Sep-15 09:33 101 3 gusting 6 26.1
2019-Sep-15 09:23 107 0 gusting 3 25.6
2019-Sep-15 09:13 212 2 gusting 3 25.0
2019-Sep-15 09:03 257 0 gusting 6 24.4
2019-Sep-15 08:53 225 1 gusting 2 24.4
2019-Sep-15 08:43 076 0 gusting 2 23.3
2019-Sep-15 08:33 087 0 gusting 2 22.8
2019-Sep-15 08:23 314 0 gusting 1 22.8
2019-Sep-15 08:13 098 1 gusting 4 22.2
2019-Sep-15 08:03 115 2 gusting 3 21.7
2019-Sep-15 07:53 20.6
2019-Sep-15 07:43 293 20.0
2019-Sep-15 07:33 260 0 gusting 1 20.0
2019-Sep-15 07:23 260 20.0
2019-Sep-15 07:13 260 19.4
2019-Sep-15 07:03 129 18.9
2019-Sep-15 06:53 129 0 gusting 1 18.9
2019-Sep-15 06:43 129 0 gusting 2 18.3
2019-Sep-15 06:33 222 18.3
2019-Sep-15 06:23 222 18.3
2019-Sep-15 06:13 229 18.3
2019-Sep-15 06:03 229 18.3
2019-Sep-15 05:53 229 18.3
2019-Sep-15 05:43 229 18.3
2019-Sep-15 05:33 228 2 gusting 3 18.3
2019-Sep-15 05:23 239 18.9
2019-Sep-15 05:13 239 18.9
2019-Sep-15 05:03 239 1 gusting 1 18.9
2019-Sep-15 04:53 239 1 gusting 2 19.4
2019-Sep-15 04:43 047 19.4
2019-Sep-15 04:33 024 2 gusting 4 19.4
2019-Sep-15 04:23 047 1 gusting 2 19.4
2019-Sep-15 04:13 051 20.0
2019-Sep-15 04:03 061 0 gusting 1 20.0
2019-Sep-15 03:53 044 20.6
2019-Sep-15 03:43 015 2 gusting 3 20.6
2019-Sep-15 03:33 021 1 gusting 3 20.6
2019-Sep-15 03:23 094 0 gusting 2 20.6
2019-Sep-15 03:13 136 20.6
2019-Sep-15 03:03 088 21.1
2019-Sep-15 02:53 088 1 gusting 4 20.6
2019-Sep-15 02:43 119 2 gusting 4 20.6
2019-Sep-15 02:33 153 1 gusting 4 21.1
2019-Sep-15 02:23 078 1 gusting 5 21.1
2019-Sep-15 02:13 033 1 gusting 3 21.1
2019-Sep-15 02:03 016 0 gusting 3 21.1
2019-Sep-15 01:53 015 0 gusting 1 21.7
2019-Sep-15 01:43 015 1 gusting 4 21.7
2019-Sep-15 01:33 030 1 gusting 1 21.1
2019-Sep-15 01:23 074 21.7
2019-Sep-15 01:13 068 1 gusting 5 21.7
2019-Sep-15 01:03 050 2 gusting 5 21.7
2019-Sep-15 00:53 028 2 gusting 4 21.7
2019-Sep-15 00:43 032 0 gusting 2 21.7
2019-Sep-15 00:33 085 0 gusting 3 22.2
2019-Sep-15 00:23 005 1 gusting 4 22.2
2019-Sep-15 00:13 009 1 gusting 2 22.2
2019-Sep-15 00:03 350 1 gusting 1 21.7
2019-Sep-14 23:53 302 0 gusting 5 21.7
2019-Sep-14 23:43 267 1 gusting 4 21.1
2019-Sep-14 23:33 274 3 gusting 4 21.1
2019-Sep-14 23:23 281 1 gusting 4 20.6
2019-Sep-14 23:13 276 0 gusting 3 21.1
2019-Sep-14 23:03 222 0 gusting 4 21.7
2019-Sep-14 22:54 224 1 gusting 3 22.2
2019-Sep-14 22:43 032 0 gusting 3 22.2
2019-Sep-14 22:34 035 0 gusting 4 22.2
2019-Sep-14 22:23 356 2 gusting 5 22.2
2019-Sep-14 22:13 061 3 gusting 5 22.2
2019-Sep-14 22:03 009 2 gusting 7 22.8